Regional Weather Roundup
Issued by NWS

Home | Current Version | Previous Version | Graphics & Text | Print | Product List | Glossary On
Versions: 1 2 3 4 5 6 7 8 9 10 11 12 13 14 15 16 17 18 19 20 21 22 23 24 25 26 27 28 29 30 31 32 33 34 35 36 37 38 39 40 41 42 43 44 45 46 47 48 49 50
000
ASUS43 KLOT 240908
RWRIL

ILLINOIS REGIONAL WEATHER ROUNDUP
NATIONAL WEATHER SERVICE CHICAGO/ROMEOVILLE IL
300 AM CST FRI FEB 24 2017

NOTE: "FAIR" INDICATES FEW OR NO CLOUDS BELOW 12,000 FEET WITH NO
SIGNIFICANT WEATHER AND/OR OBSTRUCTIONS TO VISIBILITY.

* THESE STATIONS ARE NOT UNDER NWS QUALITY CONTROL. THEY ALSO MAY NOT
  REPORT WEATHER SUCH AS PRECIPITATION OR FOG.

ILZ001-002-007-009-015-016-024-241000-
NORTHWEST ILLINOIS

CITY           SKY/WX    TMP DP  RH WIND       PRES   REMARKS
MOLINE         CLOUDY    41  36  82 E16       29.47F
STERLING*      CLOUDY    39  38  96 NE12G18   29.51F WCI  32
$$

ILZ003-004-008-010-011-017-018-241000-
NORTH CENTRAL ILLINOIS

CITY           SKY/WX    TMP DP  RH WIND       PRES   REMARKS
ROCKFORD       LGT RAIN  38  35  89 NE15      29.57F WCI  29
FREEPORT*      LGT RAIN  35  34  96 NE14      29.57F WCI  26
ROCHELLE*      CLOUDY    38  37  97 NE16      29.52F WCI  29
DE KALB*       CLOUDY    38  37  97 NE18      29.54F WCI  28
PERU*          CLOUDY    41  40  95 E15       29.49F FOG
$$

ILZ005-006-012>014-019>023-241000-
NORTHEAST ILLINOIS

CITY           SKY/WX    TMP DP  RH WIND       PRES   REMARKS
CHICAGO-OHARE  CLOUDY    40  38  93 NE13      29.56F
CHICAGO-MIDWAY CLOUDY    41  38  89 N8        29.55F FOG
AURORA         CLOUDY    40  38  93 NE18      29.52F
LANSING*       CLOUDY    40  40 100 NE6       29.54F FOG
JOLIET*        CLOUDY    43  42  97 NE8       29.53F FOG
WAUKEGAN       CLOUDY    37  36  96 NE16G25   29.58F WCI  28
DUPAGE AIRPORT LGT RAIN  38  36  92 NE15      29.53F WCI  29
KANKAKEE*      CLOUDY    56  54  92 S8        29.51F
WHEELING       CLOUDY    38  36  92 NE15G22   29.58F WCI  29
MORRIS*        CLOUDY    42  41  95 NE8       29.50F FOG
ROMEOVILLE*    CLOUDY    40  40 100 NE12      29.53F
NORTHERLY ISL    N/A     38  37  97 N10         N/A  WCI  31
$$

LMZ740>746-241000-
SOUTHERN LAKE MICHIGAN

STATION/POSITION SKY/WX   TEMP    WIND        PRES    VSBY  WAVE
                          AIR SEA DIR/SP/G                  HT/PER
                          (F)     (DEG/KT/KT) (MB)    (MI)  (FT/S)
HARRISON CRIB              39      50/ 13/ 16   N/A
BURNHAM HARBOR             39     350/  8/ 17   N/A
CALUMET HARBOR             38     360/ 10/ 14 1000.2F
BURNS HARBOR               38     320/  6/ 10 1001.7F
MICHIGAN CITY              42     220/  8/  9   N/A
$$

ILZ025>027-034>036-040-047-049-050-058-095>099-241000-
WEST-CENTRAL ILLINOIS

CITY           SKY/WX    TMP DP  RH WIND       PRES   REMARKS
QUINCY         CLOUDY    61  55  81 S14       29.38F
GALESBURG*     CLOUDY    44  43  98 E8        29.43F FOG
MACOMB*        CLOUDY    47  46  98 E5        29.45S FOG
JACKSONVILLE*  CLOUDY    60  53  79 S12G20    29.44S
PITTSFIELD*    CLOUDY    63  55  77 S17       29.45R
$$

ILZ028>032-037-038-041>044-048-051>054-059>061-241000-
CENTRAL ILLINOIS

CITY           SKY/WX    TMP DP  RH WIND       PRES   REMARKS
PONTIAC        PTCLDY    48  47  98 E10       29.49F FOG
BLOOMINGTON    PTCLDY    56  53  90 S18       29.48F
DECATUR        CLEAR     60  54  80 S18       29.49F
PEORIA         MOCLDY    47  46  97 E6        29.45F
LACON*         MOCLDY    42  42  99 NE5       29.46F FOG
LINCOLN*       CLEAR     58  56  91 S15       29.46S
SPRINGFIELD    CLEAR     60  54  80 S16       29.45F
TAYLORVILLE    CLEAR     60  55  84 S15       29.49F
$$

ILZ033-039-045-046-055>057-062-063-241000-
EAST-CENTRAL ILLINOIS

CITY           SKY/WX    TMP DP  RH WIND       PRES   REMARKS
CHAMPAIGN      CLOUDY    60  54  80 S17       29.51F
RANTOUL*       CLOUDY    59  56  88 SE14      29.50F
MATTOON        PTCLDY    61  56  83 S17G23    29.52F
PARIS*         CLOUDY    61  56  82 S18G24    29.55F
$$

ILZ079-100>102-241000-
SOUTHWEST ILLINOIS

CITY           SKY/WX    TMP DP  RH WIND       PRES   REMARKS
ALTON          PTCLDY    57  53  88 SE10      29.47F
BELLEVILLE     PTCLDY    61  60  94 SE5       29.48F
CAHOKIA*       PTCLDY    58  52  80 SE7       29.47F
SPARTA*        CLEAR     61  57  86 S18G26    29.52S
$$

ILZ064>066-069>071-074>076-080>082-084>086-088>090-092>094-241000-
SOUTH-CENTRAL ILLINOIS

CITY           SKY/WX    TMP DP  RH WIND       PRES   REMARKS
CARBONDALE     CLEAR     63  57  81 S18G26    29.55F
CAIRO*         PTCLDY    62  57  83 S16G23    29.59F
EFFINGHAM*     CLEAR     61  57  87 SE10G16   29.56S
MARION         CLEAR     64  61  88 S20G26    29.57F
MT. VERNON     CLEAR     62  56  80 S17G23    29.55F
CENTRALIA*     CLEAR     62  58  84 S15       29.53S
SALEM*         CLEAR     63  56  78 S13G22    29.54S
METROPOLIS*    CLEAR     64  57  80 CALM      29.62F
$$

ILZ067-068-072-073-078-083-087-091-241000-
SOUTHEAST ILLINOIS

CITY           SKY/WX    TMP DP  RH WIND       PRES   REMARKS
LAWRENCEVILLE  PTCLDY    61  55  81 S16       29.59F
FLORA*         MOCLDY    62  57  82 S17       29.55F
FAIRFIELD*     PTCLDY    61  56  84 S7        29.56S
HARRISBURG*    PTCLDY    64  58  81 S16G26    29.58F
ROBINSON*      PTCLDY    61  55  79 S15       29.59F
CARMI*         CLEAR     60  56  87 S13       29.59F
$$

ABBREVIATIONS USED IN REMARKS
   TC - TEMPERATURE IN CELSIUS
  WCI - WIND CHILL INDEX
   HX - HEAT INDEX
  VSB - VISIBILITY
$$





USA.gov is the U.S. government's official web portal to all federal, state and local government web resources and services.